Location: Peach Mountain Observatory
(42.3967°N, 83.9367°W)
Time: 19:24:12
(UTC-05:00)

S-56A Canister/Altair - Pass Details

Date: 28 January 2020
Orbit: 633 x 2499 km, 38.9° (Epoch: 23 February)

Event Time Altitude Azimuth Distance (km) Brightness Sun altitude
Rises 17:47:07 0° 210° (SSW) 5,209 12.8 -1.4°
Reaches altitude 10° 17:51:48 10° 198° (SSW) 3,864 11.8 -2.1°
Maximum altitude 17:58:44 23° 152° (SSE) 2,449 10.1 -3.3°
Drops below altitude 10° 18:03:59 10° 102° (ESE) 2,844 9.9 -4.2°
Enters shadow 18:06:01 - 91° (E) 3,338 10.2 -4.6°
Sets 18:06:49 0° 87° (E) 3,562 - -4.7°
